Regional Weather Roundup
Issued by NWS

Home | Current Version | Previous Version | Text Only | Print | Product List | Glossary On
Versions: 1 2 3 4 5 6 7 8 9 10 11 12 13 14 15 16 17 18 19 20 21 22 23 24 25 26 27 28 29 30 31 32 33 34 35 36 37 38 39 40 41 42 43 44 45 46 47 48 49 50
408
ASUS43 KLMK 261002
RWRKY
KENTUCKY REGIONAL WEATHER ROUNDUP
NATIONAL WEATHER SERVICE LOUISVILLE KY
600 AM EDT TUE JUL 26 2016

NOTE "FAIR" INDICATES FEW OR NO CLOUDS BELOW 12,000 FEET
WITH NO SIGNIFICANT WEATHER AND/OR OBSTRUCTIONS TO VISIBILITY.

KYZ001>023-026-027-061>063-070>075-261100-
WESTERN AND SOUTH CENTRAL KENTUCKY

CITY           SKY/WX    TMP DP  RH WIND       PRES   REMARKS
PADUCAH        CLOUDY    74  72  93 CALM      30.00S
HENDERSON      CLOUDY    73  70  88 CALM      30.00R
OWENSBORO      CLEAR     74  74 100 CALM      30.02R
HOPKINSVILLE   CLEAR     73  73  99 CALM      30.01S
BOWLING GREEN  CLOUDY    74  72  93 CALM      30.02R
GLASGOW        NOT AVBL
$$

KYZ024-025-028>034-038-045-046-053-261100-
NORTH CENTRAL KENTUCKY

CITY           SKY/WX    TMP DP  RH WIND       PRES   REMARKS
LOUISVILLE/SDF CLOUDY    76  73  91 S6        30.02R
LOUISVILLE/LOU CLOUDY    75  72  90 CALM      30.03R
FORT KNOX      FOG       72  72 100 CALM      30.03R VSB 1
$$

KYZ035>037-039>044-047>052-055>060-089>105-261100-
NORTHEAST KENTUCKY

CITY           SKY/WX    TMP DP  RH WIND       PRES   REMARKS
LEXINGTON      FOG       72  71  97 SW3       30.05R VSB 1/4
COVINGTON      CLOUDY    78  74  87 N6        30.03R
FRANKFORT      PTCLDY    73  71  93 CALM      30.03R
$$

KYZ054-064>069-076>088-106>120-261100-
SOUTHEAST KENTUCKY

CITY           SKY/WX    TMP DP  RH WIND       PRES   REMARKS
JACKSON        FOG       72  71  97 CALM      30.07R VSB 1/4
LONDON         MOCLDY    70  67  90 CALM      30.07R
SOMERSET       CLOUDY    70  70 100 CALM      30.06S FOG
MIDDLESBORO    CLEAR     69  68  98 CALM      30.09R
MONTICELLO     MOSUNNY  N/A N/A N/A W6        30.07R
$$





USA.gov is the U.S. government's official web portal to all federal, state and local government web resources and services.